Regional Weather Roundup
Issued by NWS

Home | Current Version | Previous Version | Text Only | Print | Product List | Glossary On
Versions: 1 2 3 4 5 6 7 8 9 10 11 12 13 14 15 16 17 18 19 20 21 22 23 24 25 26 27 28 29 30 31 32 33 34 35 36 37 38 39 40 41 42 43 44 45 46 47 48 49 50
000
ASUS44 KOUN 062210
RWROK

WEATHER ROUNDUP FOR OKLAHOMA
NATIONAL WEATHER SERVICE NORMAN OK
500 PM CDT MON JUL 06 2015

NOTE: "FAIR" INDICATES FEW OR NO CLOUDS BELOW 12,000 FEET WITH NO
      SIGNIFICANT WEATHER AND/OR OBSTRUCTIONS TO VISIBILITY.

OKZ001>007-009>012-014-015-017-062300-
NORTHWEST OKLAHOMA AND THE PANHANDLE

CITY           SKY/WX    TMP DP  RH WIND       PRES   REMARKS
GAGE           CLOUDY    90  70  51 N13       29.87F HX  95
GUYMON         PTSUNNY   78  61  55 N25G35    30.02R
ENID/WOODRING  PTSUNNY   99  70  39 S15G28    29.79F HX 105
$$

OKZ016-021>023-033>039-044-045-062300-
SOUTHWEST OKLAHOMA

CITY           SKY/WX    TMP DP  RH WIND       PRES   REMARKS
LAWTON/REGL    MOSUNNY   93  71  48 S17       29.86F HX 100
LAWTON/FT SILL MOSUNNY   91  74  58 S18       29.85F HX 100
FREDERICK      MOSUNNY   94  72  48 S22G30    29.82F HX 102
CLINTON        MOSUNNY   95  71  45 S22G28    29.86F HX 102
HOBART         MOSUNNY   93  71  48 S20G28    29.85F HX 100
ALTUS AFB      MOSUNNY   95  73  49 S18       29.83F HX 104
$$

OKZ018>020-024>031-062300-
CENTRAL OKLAHOMA

CITY           SKY/WX    TMP DP  RH WIND       PRES   REMARKS
OKLAHOMA CITY  PTSUNNY   90  75  61 S18       29.87F HX 100
OKC/WILEY POST MOSUNNY   89  74  60 S24G30    29.85F HX  98
OKC/TINKER AFB MOSUNNY   88  74  64 S21G26    29.86F HX  97
STILLWATER     MOSUNNY   92  72  51 S23G30    29.83F HX  99
GUTHRIE        MOSUNNY   91  74  57 S20G25    29.84F HX 100
$$

OKZ008-013-054>072-062300-
NORTHEAST OKLAHOMA

CITY           SKY/WX    TMP DP  RH WIND       PRES   REMARKS
TULSA          PTSUNNY   89  75  63 S21G26    29.85F HX  99
TULSA/JONES    MOSUNNY   91  74  57 S16G26    29.85F HX 100
PONCA CITY     MOSUNNY   93  72  50 S13G21    29.80F HX 101
BARTLESVILLE   PTSUNNY   92  75  57 S10       29.85F HX 103
MUSKOGEE       MOSUNNY   86  74  67 S18G28    29.90F HX  94
$$

OKZ032-040>043-046>053-073>077-062300-
SOUTH CENTRAL/SOUTHEAST OKLAHOMA

CITY           SKY/WX    TMP DP  RH WIND       PRES   REMARKS
ARDMORE/DWNTWN CLOUDY    88  68  51 S12G17    29.91F HX  91
MCALESTER      PTSUNNY   86  71  60 S10G24    29.93F HX  91
$$




USA.gov is the U.S. government's official web portal to all federal, state and local government web resources and services.